2017-042F (42830 NORAD) Tracking and Keplerian Element Data

This shows tracking and keplerian element data for the satellite.

Feedback or suggestion? Click here.




ElementValue
Catalog42830
Name2017-042F
Epoch Orbit15713
Epoch Day154.543239
Epoch Year2020
RAAN38.4221
Inclination97.5297
Eccentricity0.0013643
Argument of Perigee335.9452
Mean Anonmoly24.1129
Mean Motion14.92218506
Decay Rate6.11E-06
L11 42830U 17042F 20154.54323900 .00000611 00000-0 65164-4 0 9993
L22 42830 97.5297 38.4221 0013643 335.9452 24.1129 14.92218506157130

Live tracking and technical data element details for 2017-042F (NORAD 42830). 2017-042F can be tracked NOW for your location showing map with azimuth and elevation plus other details from your city location.

Track the satellite on the map from your city or location and see movement details for azimuth, elevation, latitude, longitude, range, height, and movement on the map or in text.







IsCatalogInMostPopularTable: catalog: 42830, numindb: 388
Update: records affected: 1



GetName: 42830 2017-042F

Hit Count: updated at: Thu, 04 Jun 2020 08:48:07 GMT